When you browse on this site, cookies collect data to enhance your experience and personalize the content and advertising you see.
Visit our Privacy Policy to learn more. By continuing to use the site, you agree to this use of cookies and data.
  • In Hungary
  • List of Countries
  • For 7 days
  • Water Temperature
  • Weather Map
  • News
  • Weather Widgets
  • user-avatar
    Login

    Hourly Weather Villorba

    Today, 8 April, Wednesday

    Time Temperature Precipitation Wind Pressure Humidity
    00:00 +13°C° 0 mm 2 mps 769 mmHg 49%
    01:00 +12°C° 0 mm 2 mps 769 mmHg 49%
    02:00 +12°C° 0 mm 2 mps 768 mmHg 50%
    03:00 +10°C° 0 mm 2 mps 768 mmHg 52%
    04:00 +10°C° 0 mm 2 mps 768 mmHg 53%
    05:00 +10°C° 0 mm 2 mps 768 mmHg 54%
    06:00 +12°C° 0 mm 2 mps 768 mmHg 55%
    07:00 +12°C° 0 mm 2 mps 768 mmHg 56%
    08:00 +14°C° 0 mm 3 mps 767 mmHg 48%
    09:00 +17°C° 0 mm 3 mps 767 mmHg 40%
    10:00 +19°C° 0 mm 4 mps 766 mmHg 31%
    11:00 +20°C° 0 mm 4 mps 766 mmHg 30%
    12:00 +20°C° 0 mm 4 mps 766 mmHg 28%
    13:00 +21°C° 0 mm 4 mps 766 mmHg 27%
    14:00 +21°C° 0 mm 4 mps 765 mmHg 27%
    15:00 +21°C° 0 mm 3 mps 765 mmHg 27%
    16:00 +21°C° 0 mm 3 mps 764 mmHg 27%
    17:00 +19°C° 0 mm 2 mps 764 mmHg 33%
    18:00 +17°C° 0 mm 2 mps 764 mmHg 38%
    19:00 +15°C° 0 mm 1 mps 765 mmHg 43%
    20:00 +14°C° 0 mm 1 mps 765 mmHg 44%
    21:00 +14°C° 0 mm 1 mps 765 mmHg 46%
    22:00 +13°C° 0 mm 1 mps 766 mmHg 47%
    23:00 +13°C° 0 mm 1 mps 766 mmHg 48%

    Tomorrow, 9 April, Thursday

    Time Temperature Precipitation Wind Pressure Humidity
    00:00 +12°C° 0 mm 1 mps 765 mmHg 50%
    01:00 +12°C° 0 mm 2 mps 765 mmHg 51%
    02:00 +12°C° 0 mm 1 mps 765 mmHg 52%
    03:00 +11°C° 0 mm 1 mps 765 mmHg 54%
    04:00 +11°C° 0 mm 1 mps 764 mmHg 55%
    05:00 +11°C° 0 mm 1 mps 764 mmHg 56%
    06:00 +12°C° 0 mm 1 mps 764 mmHg 57%
    07:00 +13°C° 0 mm 1 mps 764 mmHg 58%
    08:00 +14°C° 0 mm 1 mps 764 mmHg 52%
    09:00 +16°C° 0 mm 1 mps 764 mmHg 47%
    10:00 +19°C° 0 mm 1 mps 764 mmHg 41%
    11:00 +20°C° 0 mm 1 mps 763 mmHg 39%
    12:00 +21°C° 0 mm 1 mps 763 mmHg 37%
    13:00 +21°C° 0 mm 2 mps 763 mmHg 35%
    14:00 +21°C° 0 mm 2 mps 763 mmHg 35%
    15:00 +21°C° 0 mm 2 mps 762 mmHg 35%
    16:00 +21°C° 0 mm 2 mps 762 mmHg 36%
    17:00 +20°C° 0 mm 2 mps 762 mmHg 41%
    18:00 +18°C° 0 mm 2 mps 762 mmHg 47%
    19:00 +16°C° 0 mm 1 mps 762 mmHg 53%
    20:00 +15°C° 0 mm 1 mps 763 mmHg 54%
    21:00 +15°C° 0 mm 1 mps 763 mmHg 55%
    22:00 +14°C° 0 mm 1 mps 764 mmHg 57%
    23:00 +14°C° 0 mm 1 mps 764 mmHg 59%

    Day after tomorrow, 10 April, Friday

    Time Temperature Precipitation Wind Pressure Humidity
    00:00 +14°C° 0 mm 1 mps 764 mmHg 60%
    01:00 +13°C° 0 mm 1 mps 764 mmHg 62%
    02:00 +13°C° 0 mm 1 mps 764 mmHg 63%
    03:00 +13°C° 0 mm 1 mps 764 mmHg 64%
    04:00 +12°C° 0 mm 1 mps 764 mmHg 65%
    05:00 +13°C° 0 mm 1 mps 764 mmHg 65%
    06:00 +14°C° 0 mm 1 mps 764 mmHg 64%
    07:00 +14°C° 0 mm 1 mps 764 mmHg 63%
    08:00 +16°C° 0 mm 1 mps 764 mmHg 58%
    09:00 +19°C° 0 mm 1 mps 764 mmHg 52%
    10:00 +21°C° 0 mm 1 mps 764 mmHg 46%
    11:00 +22°C° 0 mm 1 mps 764 mmHg 43%
    12:00 +23°C° 0 mm 1 mps 764 mmHg 39%
    13:00 +24°C° 0 mm 2 mps 763 mmHg 35%
    14:00 +24°C° 0 mm 2 mps 763 mmHg 35%
    15:00 +24°C° 0 mm 2 mps 763 mmHg 35%
    16:00 +24°C° 0 mm 3 mps 762 mmHg 36%
    17:00 +21°C° 0 mm 2 mps 762 mmHg 40%
    18:00 +19°C° 0 mm 2 mps 762 mmHg 45%
    19:00 +18°C° 0 mm 1 mps 762 mmHg 49%
    20:00 +18°C° 0 mm 1 mps 763 mmHg 51%
    21:00 +16°C° 0 mm 1 mps 763 mmHg 53%
    22:00 +16°C° 0 mm 1 mps 763 mmHg 55%
    23:00 +15°C° 0 mm 1 mps 763 mmHg 58%

    11 April, Saturday

    Time Temperature Precipitation Wind Pressure Humidity
    00:00 +15°C° 0 mm 1 mps 763 mmHg 60%
    01:00 +14°C° 0 mm 1 mps 763 mmHg 62%
    02:00 +14°C° 0 mm 1 mps 763 mmHg 62%
    03:00 +14°C° 0 mm 1 mps 763 mmHg 63%
    04:00 +13°C° 0 mm 1 mps 763 mmHg 63%
    05:00 +14°C° 0 mm 1 mps 763 mmHg 63%
    06:00 +14°C° 0 mm 1 mps 763 mmHg 63%
    07:00 +15°C° 0 mm 1 mps 763 mmHg 63%
    08:00 +18°C° 0 mm 1 mps 763 mmHg 58%
    09:00 +19°C° 0 mm 1 mps 763 mmHg 52%
    10:00 +21°C° 0 mm 1 mps 763 mmHg 47%
    11:00 +22°C° 0 mm 1 mps 763 mmHg 45%
    12:00 +23°C° 0 mm 2 mps 762 mmHg 42%
    13:00 +24°C° 0 mm 2 mps 762 mmHg 40%
    14:00 +24°C° 0 mm 2 mps 762 mmHg 41%
    15:00 +24°C° 0 mm 3 mps 761 mmHg 41%
    16:00 +24°C° 0 mm 3 mps 761 mmHg 42%
    17:00 +21°C° 0 mm 3 mps 761 mmHg 48%
    18:00 +19°C° 0 mm 2 mps 761 mmHg 54%
    19:00 +17°C° 0 mm 2 mps 761 mmHg 61%
    20:00 +16°C° 0 mm 1 mps 762 mmHg 61%
    21:00 +16°C° 0 mm 1 mps 762 mmHg 62%
    22:00 +15°C° 0 mm 1 mps 762 mmHg 63%
    23:00 +15°C° 0 mm 1 mps 762 mmHg 64%

    12 April, Sunday

    Time Temperature Precipitation Wind Pressure Humidity
    00:00 +15°C° 0 mm 1 mps 762 mmHg 65%
    01:00 +14°C° 0 mm 1 mps 762 mmHg 67%
    02:00 +14°C° 0 mm 1 mps 762 mmHg 68%
    03:00 +14°C° 0 mm 1 mps 762 mmHg 69%
    04:00 +13°C° 0 mm 1 mps 762 mmHg 70%
    05:00 +14°C° 0 mm 1 mps 762 mmHg 69%
    06:00 +15°C° 0 mm 1 mps 761 mmHg 68%
    07:00 +15°C° 0 mm 1 mps 761 mmHg 67%
    08:00 +18°C° 0 mm 1 mps 761 mmHg 61%
    09:00 +19°C° 0 mm 1 mps 761 mmHg 54%
    10:00 +21°C° 0 mm 1 mps 761 mmHg 48%
    11:00 +21°C° 0 mm 2 mps 760 mmHg 45%
    12:00 +23°C° 0 mm 2 mps 760 mmHg 42%
    13:00 +22°C° 0 mm 3 mps 760 mmHg 40%
    14:00 +22°C° 0 mm 3 mps 759 mmHg 41%
    15:00 +22°C° 0 mm 3 mps 759 mmHg 43%
    16:00 +21°C° 0 mm 3 mps 758 mmHg 45%
    17:00 +20°C° 0 mm 3 mps 758 mmHg 53%
    18:00 +18°C° 0 mm 2 mps 758 mmHg 60%
    19:00 +16°C° 0 mm 1 mps 758 mmHg 68%
    20:00 +16°C° 0 mm 1 mps 758 mmHg 69%
    21:00 +15°C° 0 mm 1 mps 758 mmHg 69%
    22:00 +15°C° 0 mm 1 mps 759 mmHg 70%
    23:00 +14°C° 0 mm 1 mps 758 mmHg 72%

    13 April, Monday

    Time Temperature Precipitation Wind Pressure Humidity
    00:00 +14°C° 0 mm 2 mps 758 mmHg 73%
    01:00 +14°C° 0 mm 2 mps 758 mmHg 75%
    02:00 +13°C° 0 mm 2 mps 758 mmHg 75%
    03:00 +13°C° 0 mm 2 mps 758 mmHg 76%
    04:00 +13°C° 0 mm 2 mps 758 mmHg 77%
    05:00 +13°C° 0 mm 1 mps 758 mmHg 75%
    06:00 +14°C° 0 mm 1 mps 758 mmHg 74%
    07:00 +14°C° 0 mm 1 mps 758 mmHg 72%
    08:00 +16°C° 0 mm 1 mps 758 mmHg 67%
    09:00 +18°C° 0 mm 1 mps 758 mmHg 62%
    10:00 +20°C° 0 mm 1 mps 758 mmHg 57%
    11:00 +20°C° 0 mm 1 mps 757 mmHg 55%
    12:00 +20°C° 0 mm 2 mps 757 mmHg 53%
    13:00 +21°C° 0 mm 2 mps 757 mmHg 50%
    14:00 +21°C° 0 mm 2 mps 757 mmHg 49%
    15:00 +21°C° 0 mm 2 mps 756 mmHg 48%
    16:00 +21°C° 0 mm 2 mps 756 mmHg 47%
    17:00 +20°C° 0 mm 2 mps 756 mmHg 51%
    18:00 +18°C° 0 mm 2 mps 757 mmHg 56%
    19:00 +17°C° 0 mm 2 mps 757 mmHg 60%
    20:00 +16°C° 0 mm 2 mps 757 mmHg 64%
    21:00 +15°C° 0 mm 2 mps 758 mmHg 68%
    22:00 +14°C° 0 mm 2 mps 759 mmHg 71%
    23:00 +14°C° 0 mm 2 mps 759 mmHg 74%
    Show more